RH
67 61 59 56 54 56 60 62 62 65 68 69 70 73 75 75 73 71 71 70 70 71 71 71 72 72 73 72 70 68 67 66 67 69 69 67 66 66 65 63 61 59
76 70 67 63 62 64 65 65 65 68 72 73 72 74 76 76 74 72 72 72 72 73 73 72 72 72 72 72 72 70 67 65 68 71 68 64 64 65 65 63 59 54
82 80 76 69 66 69 68 66 66 69 74 75 75 77 78 77 75 72 72 73 74 75 74 72 72 73 72 73 75 73 68 67 69 69 67 65 65 64 64 62 57 52
85 84 80 71 66 67 67 65 64 68 73 76 79 84 82 78 76 73 71 72 74 74 72 70 72 74 74 76 76 72 68 67 68 66 65 67 66 63 62 60 56 52
88 89 82 71 66 66 66 65 66 69 75 79 83 88 86 79 76 74 72 73 74 74 72 71 74 75 76 77 74 69 66 66 65 65 65 66 66 63 60 57 54 53
92 94 85 73 69 66 64 66 68 70 75 79 81 84 84 80 77 75 74 75 75 74 74 74 75 76 76 75 70 66 65 64 64 64 64 65 65 61 58 57 55 55
95 95 86 77 74 69 68 72 72 70 73 78 81 82 82 79 77 75 75 76 75 74 75 76 76 76 74 69 65 65 65 63 62 62 62 63 62 59 58 57 55 56
92 89 81 76 74 71 72 76 74 72 73 77 80 81 80 78 77 75 75 76 75 73 74 75 73 71 67 62 62 65 64 61 62 62 62 62 61 59 58 56 56 57
87 84 78 75 73 72 74 74 73 73 73 75 79 80 79 77 76 74 74 75 76 75 75 74 71 66 63 61 62 62 60 59 61 62 62 63 61 59 57 56 57 58
85 81 78 77 74 73 76 75 73 73 73 75 80 81 79 78 77 77 75 75 78 79 78 76 71 66 63 61 59 58 57 59 61 63 64 63 62 59 58 58 59 59
84 79 77 78 76 76 78 76 74 76 77 79 82 82 80 79 79 80 80 80 82 83 81 78 72 65 62 59 56 56 58 60 61 62 61 60 60 59 61 62 62 62
80 79 78 77 77 77 78 76 76 77 79 82 83 82 81 80 79 81 85 86 85 83 80 75 68 61 58 56 56 56 57 57 58 58 57 58 59 61 64 66 65 65
77 78 78 77 77 78 78 79 79 79 81 83 83 82 84 84 82 84 87 86 85 82 73 64 58 55 56 57 57 56 55 55 55 55 55 58 61 63 67 69 68 69
75 78 79 79 81 81 80 81 83 84 85 85 83 83 87 88 86 87 88 86 86 82 66 53 52 55 59 61 59 57 56 56 57 55 55 59 63 67 71 72 72 73
76 82 84 85 86 84 82 85 88 89 89 88 86 85 87 89 88 89 89 84 83 78 63 53 56 60 62 61 58 57 58 59 59 58 57 60 64 67 70 71 72 73
77 86 90 90 89 87 86 87 90 92 91 90 89 87 86 88 90 91 88 83 80 73 62 55 57 61 62 60 57 58 60 62 61 59 59 61 63 65 67 68 70 70
78 86 92 93 92 92 91 89 90 93 92 91 90 88 87 90 91 90 87 81 74 66 58 55 56 59 60 59 59 61 63 63 63 62 61 61 61 63 66 68 69 68
82 87 92 95 95 95 94 91 92 93 92 93 92 89 89 91 90 86 81 72 64 58 55 55 55 57 59 59 61 62 63 64 66 66 65 63 62 65 69 70 70 69
86 88 93 97 98 97 95 94 94 94 92 92 91 90 91 90 84 78 71 63 59 57 55 54 56 57 57 58 60 61 62 66 69 68 65 63 65 69 71 71 71 70
85 88 93 98 99 98 97 95 94 94 92 91 92 93 92 86 76 68 62 59 59 59 56 55 56 57 55 55 58 60 62 65 67 67 66 66 69 71 72 70 69 67
82 88 92 97 99 98 97 96 95 94 92 91 93 94 90 81 70 63 59 57 57 59 59 58 58 57 56 56 59 61 62 63 65 65 67 69 72 72 71 70 69 69
81 86 90 93 98 99 98 97 96 95 93 93 94 94 89 79 69 63 59 58 57 59 61 61 61 60 59 59 61 63 61 61 63 63 65 69 72 74 74 73 75 76
76 83 88 91 94 96 98 99 97 95 92 93 95 93 86 77 69 64 61 60 59 59 61 62 62 63 63 63 63 64 63 62 63 63 64 69 74 76 77 78 78 80
72 77 83 88 92 92 93 96 97 96 92 90 91 90 83 75 70 66 63 61 60 60 60 61 62 64 65 65 65 66 66 65 63 64 67 72 77 79 80 81 82 83
69 72 75 81 88 91 91 92 94 94 92 89 88 88 84 77 71 66 64 64 63 62 61 61 62 64 65 66 68 70 70 68 67 68 70 73 77 81 83 85 87 87
67 69 71 74 80 86 89 93 94 92 91 91 91 89 86 81 74 67 65 66 66 65 65 63 64 66 67 70 72 72 73 75 75 77 79 80 82 84 86 88 89 87